Weather History for Holland, MI

Change the Weather History Date:

Saturday, February 16, 2013

  Actual Average Record
Temperature  
Mean Temperature 19 °F 28 °F  
Max Temperature 25 °F 35 °F 58 °F (1984)
Min Temperature 13 °F 22 °F -6 °F (1963)
Degree Days  
Heating Degree Days 46 37  
Month to date heating degree days 646 608  
Since 1 July heating degree days 3822 4082  
Cooling Degree Days 0 0  
Month to date cooling degree days 0 0  
Year to date cooling degree days 0 0  
Moisture  
Dew Point 13 °F    
Average Humidity 72    
Maximum Humidity 84    
Minimum Humidity 59    
Precipitation  
Precipitation 0.16 in 0.06 in 1.39 in (2006)
Month to date precipitation 1.47 0.89  
Year to date precipitation 4.63 2.98  
Sea Level Pressure  
Sea Level Pressure 30.08 in    
Wind  
Wind Speed 7 mph (NW)    
Max Wind Speed 17 mph    
Max Gust Speed 24 mph    
Visibility 3 miles    
Events Snow    
T = Trace of Precipitation, MM = Missing Value Source: NWS Daily Summary

Daily Weather History Graph

Daily Weather History Graph

Search for Another Location

Airport:

Trip Planner

Search our weather history database for the weather conditions in past years. The results will help you decide how hot, cold, wet, or windy it might be!

Date:

Astronomy

Feb. 16, 2013 Rise Set
Actual Time 7:39 AM EST 6:17 PM EST
Civil Twilight 7:10 AM EST 6:46 PM EST
Nautical Twilight 6:37 AM EST 7:19 PM EST
Astronomical Twilight 6:05 AM EST 7:52 PM EST
Moon 10:42 AM EST (2/16) 12:26 AM EST (2/16)
Length of Visible Light 11h 35m
Length of Day
10h 38m
Waxing Crescent, 39% of the Moon is Illuminated
Feb 16
Waxing Crescent
Feb 17
First Quarter
Feb 25
Full
Mar 4
Last Quarter
Mar 11
New

Hourly Weather History & Observations

Time (EST) Temp. Windchill Dew Point Humidity Pressure Visibility Wind Dir Wind Speed Gust Speed Precip Events Conditions
12:08 AM 23.0 °F - 17.6 °F 80% 30.11 in 7.0 mi Calm Calm - 0.00 in Snow Light Snow
12:53 AM 25.0 °F 19.3 °F 17.1 °F 72% 30.13 in 7.0 mi NNW 4.6 mph - 0.00 in Snow Light Snow
1:00 AM 24.8 °F 19.1 °F 17.6 °F 74% 30.10 in 2.5 mi NNW 4.6 mph - 0.00 in Snow Light Snow
1:09 AM 24.8 °F 20.5 °F 17.6 °F 74% 30.10 in 1.5 mi NNW 3.5 mph - 0.00 in Snow Light Snow
1:17 AM 24.8 °F 20.5 °F 17.6 °F 74% 30.10 in 1.5 mi NNW 3.5 mph - 0.01 in Snow Light Snow
1:24 AM 24.8 °F - 17.6 °F 74% 30.10 in 1.2 mi Calm Calm - 0.01 in Snow Light Snow
1:39 AM 24.8 °F - 19.4 °F 80% 30.09 in 1.8 mi Calm Calm - 0.01 in Snow Light Snow
1:44 AM 24.8 °F - 19.4 °F 80% 30.09 in 2.0 mi Calm Calm - 0.01 in Snow Light Snow
1:53 AM 24.1 °F - 18.0 °F 77% 30.12 in 3.0 mi Calm Calm - 0.01 in Snow Light Snow
2:16 AM 23.0 °F 18.4 °F 17.6 °F 80% 30.08 in 9.0 mi East 3.5 mph - 0.00 in   Overcast
2:53 AM 23.0 °F - 17.1 °F 78% 30.11 in 10.0 mi Calm Calm - 0.00 in   Overcast
3:53 AM 24.1 °F 13.7 °F 12.0 °F 60% 30.09 in 10.0 mi NW 10.4 mph - N/A   Overcast
4:53 AM 23.0 °F 18.4 °F 10.0 °F 58% 30.08 in 10.0 mi West 3.5 mph - N/A   Overcast
5:24 AM 23.0 °F 13.1 °F 15.8 °F 74% 30.05 in 2.0 mi NW 9.2 mph - 0.00 in Snow Light Snow
5:26 AM 23.0 °F 12.4 °F 15.8 °F 74% 30.05 in 1.2 mi NNW 10.4 mph - 0.00 in Snow Light Snow
5:30 AM 21.2 °F 10.1 °F 17.6 °F 86% 30.05 in 0.5 mi NNW 10.4 mph - 0.01 in Snow Snow
5:37 AM 21.2 °F 12.6 °F 17.6 °F 86% 30.05 in 0.5 mi NW 6.9 mph - 0.01 in Snow Snow
5:53 AM 21.9 °F 17.2 °F 17.1 °F 82% 30.09 in 0.8 mi North 3.5 mph - 0.02 in Snow Light Snow
6:00 AM 21.2 °F 14.9 °F 17.6 °F 86% 30.05 in 0.5 mi Variable 4.6 mph - 0.02 in Snow Snow
6:13 AM 21.2 °F 13.6 °F 15.8 °F 80% 30.05 in 0.8 mi Variable 5.8 mph - 0.03 in Snow Light Snow
6:22 AM 21.2 °F 13.6 °F 15.8 °F 80% 30.05 in 1.2 mi North 5.8 mph - 0.03 in Snow Light Snow
6:25 AM 21.2 °F 12.6 °F 15.8 °F 80% 30.05 in 1.5 mi North 6.9 mph - 0.03 in Snow Light Snow
6:32 AM 21.2 °F 13.6 °F 15.8 °F 80% 30.05 in 1.0 mi NNW 5.8 mph - 0.03 in Snow Light Snow
6:38 AM 21.2 °F 12.6 °F 15.8 °F 80% 30.05 in 0.8 mi NNW 6.9 mph - 0.03 in Snow Light Snow
6:51 AM 21.2 °F 12.6 °F 15.8 °F 80% 30.05 in 0.5 mi NNW 6.9 mph - 0.04 in Snow Snow
6:53 AM 21.0 °F 13.4 °F 15.1 °F 78% 30.09 in 0.5 mi NNW 5.8 mph - 0.04 in Snow Snow
7:11 AM 21.2 °F 13.6 °F 15.8 °F 80% 30.05 in 1.0 mi NNW 5.8 mph - 0.01 in Snow Light Snow
7:45 AM 21.2 °F 13.6 °F 15.8 °F 80% 30.06 in 2.0 mi NNW 5.8 mph - 0.03 in Snow Light Snow
7:53 AM 19.9 °F 14.9 °F 15.1 °F 81% 30.09 in 2.5 mi NNW 3.5 mph - 0.03 in Snow Light Snow
8:02 AM 21.2 °F 14.9 °F 14.0 °F 74% 30.06 in 6.0 mi NNW 4.6 mph - 0.00 in Snow Light Snow
8:53 AM 19.9 °F 7.9 °F 10.0 °F 65% 30.10 in 3.0 mi NW 11.5 mph 21.9 mph 0.00 in Snow Light Snow
9:53 AM 19.9 °F 7.9 °F 8.1 °F 60% 30.11 in 10.0 mi WNW 11.5 mph 18.4 mph 0.00 in   Overcast
10:03 AM 21.2 °F 9.5 °F 8.6 °F 58% 30.07 in 10.0 mi WNW 11.5 mph - N/A   Overcast
10:31 AM 19.4 °F 7.2 °F 12.2 °F 74% 30.07 in 1.8 mi WNW 11.5 mph - 0.00 in Snow Light Snow
10:39 AM 19.4 °F 7.9 °F 12.2 °F 74% 30.07 in 1.0 mi WNW 10.4 mph - 0.00 in Snow Light Snow
10:46 AM 19.4 °F 9.5 °F 12.2 °F 74% 30.07 in 0.8 mi WNW 8.1 mph 17.3 mph 0.00 in Snow Light Snow
10:53 AM 19.9 °F 10.1 °F 12.9 °F 74% 30.11 in 0.5 mi WNW 8.1 mph 19.6 mph 0.00 in Snow Snow
11:06 AM 19.4 °F 8.6 °F 12.2 °F 74% 30.07 in 0.8 mi WNW 9.2 mph 17.3 mph 0.00 in Snow Light Snow
11:24 AM 19.4 °F 9.5 °F 12.2 °F 74% 30.07 in 1.0 mi WNW 8.1 mph - 0.00 in Snow Light Snow
11:31 AM 19.4 °F 9.5 °F 12.2 °F 74% 30.07 in 0.8 mi NW 8.1 mph - 0.00 in Snow Light Snow
11:45 AM 19.4 °F 7.9 °F 12.2 °F 74% 30.08 in 0.2 mi NNW 10.4 mph - 0.00 in Snow Heavy Snow
11:53 AM 19.0 °F 7.5 °F 12.9 °F 77% 30.11 in 0.2 mi NW 10.4 mph 18.4 mph 0.01 in Snow Heavy Snow
12:30 PM 19.4 °F 7.2 °F 10.4 °F 68% 30.07 in 0.8 mi NW 11.5 mph - 0.00 in Snow Light Snow
12:35 PM 21.2 °F 10.9 °F 10.4 °F 63% 30.07 in 1.5 mi WNW 9.2 mph - 0.00 in Snow Light Snow
12:39 PM 21.2 °F 9.5 °F 10.4 °F 63% 30.07 in 3.0 mi NW 11.5 mph 17.3 mph 0.00 in Snow Light Snow
12:46 PM 21.2 °F 9.5 °F 10.4 °F 63% 30.07 in 1.8 mi WNW 11.5 mph 17.3 mph 0.00 in Snow Light Snow
12:53 PM 21.0 °F 8.1 °F 10.9 °F 65% 30.10 in 1.0 mi WNW 13.8 mph 18.4 mph 0.00 in Snow Light Snow
1:07 PM 19.4 °F 7.2 °F 12.2 °F 74% 30.06 in 0.5 mi WNW 11.5 mph 18.4 mph 0.00 in Snow Snow
1:16 PM 19.4 °F 7.2 °F 12.2 °F 74% 30.06 in 0.5 mi WNW 11.5 mph 19.6 mph 0.00 in Snow Snow
1:42 PM 19.4 °F 7.2 °F 12.2 °F 74% 30.05 in 0.8 mi West 11.5 mph 23.0 mph 0.01 in Snow Light Snow
1:46 PM 21.2 °F 10.9 °F 12.2 °F 68% 30.05 in 1.5 mi West 9.2 mph - 0.01 in Snow Light Snow
1:53 PM 21.0 °F 7.1 °F 12.0 °F 68% 30.09 in 2.0 mi West 16.1 mph 24.2 mph 0.01 in Snow Light Snow
2:05 PM 21.2 °F 9.5 °F 12.2 °F 68% 30.05 in 1.8 mi WNW 11.5 mph - 0.00 in Snow Light Snow
2:12 PM 19.4 °F 5.0 °F 12.2 °F 74% 30.06 in 0.8 mi WNW 16.1 mph 20.7 mph 0.00 in Snow Light Snow
2:14 PM 19.4 °F 6.6 °F 12.2 °F 74% 30.06 in 0.5 mi WNW 12.7 mph 20.7 mph 0.00 in Snow Snow
2:32 PM 19.4 °F 7.9 °F 12.2 °F 74% 30.05 in 0.2 mi West 10.4 mph - 0.00 in Snow Heavy Snow
2:47 PM 21.2 °F 8.9 °F 12.2 °F 68% 30.05 in 1.0 mi WNW 12.7 mph 19.6 mph 0.00 in Snow Light Snow
2:53 PM 21.0 °F 8.6 °F 12.0 °F 68% 30.09 in 2.0 mi WNW 12.7 mph 19.6 mph 0.00 in Snow Light Snow
2:59 PM 21.2 °F 10.9 °F 10.4 °F 63% 30.05 in 5.0 mi WNW 9.2 mph 24.2 mph 0.00 in Snow Light Snow
3:14 PM 21.2 °F 7.8 °F 12.2 °F 68% 30.05 in 1.8 mi West 15.0 mph - 0.00 in Snow Light Snow
3:31 PM 21.2 °F 10.1 °F 12.2 °F 68% 30.05 in 1.0 mi WNW 10.4 mph 23.0 mph 0.00 in Snow Light Snow
3:34 PM 21.2 °F 10.1 °F 12.2 °F 68% 30.05 in 0.8 mi WNW 10.4 mph 23.0 mph 0.00 in Snow Light Snow
3:44 PM 19.4 °F 7.2 °F 12.2 °F 74% 30.05 in 0.5 mi WNW 11.5 mph 20.7 mph 0.00 in Snow Snow
3:49 PM 21.2 °F 9.5 °F 12.2 °F 68% 30.05 in 1.0 mi WNW 11.5 mph - 0.00 in Snow Light Snow
3:51 PM 21.2 °F 10.1 °F 12.2 °F 68% 30.05 in 1.5 mi WNW 10.4 mph - 0.00 in Snow Light Snow
3:53 PM 21.0 °F 8.6 °F 12.0 °F 68% 30.09 in 1.8 mi WNW 12.7 mph - 0.00 in Snow Light Snow
3:56 PM 19.4 °F 7.9 °F 12.2 °F 74% 30.05 in 0.8 mi WNW 10.4 mph - 0.00 in Snow Light Snow
4:04 PM 19.4 °F 7.2 °F 12.2 °F 74% 30.05 in 0.2 mi West 11.5 mph 18.4 mph 0.00 in Snow Heavy Snow
4:14 PM 19.4 °F 7.2 °F 12.2 °F 74% 30.06 in 1.0 mi West 11.5 mph - 0.00 in Snow Light Snow
4:24 PM 21.2 °F 9.5 °F 12.2 °F 68% 30.06 in 1.5 mi West 11.5 mph 18.4 mph 0.00 in Snow Light Snow
4:32 PM 21.2 °F 9.5 °F 12.2 °F 68% 30.06 in 2.5 mi West 11.5 mph 17.3 mph 0.00 in Snow Light Snow
4:53 PM 21.0 °F 9.9 °F 10.9 °F 65% 30.09 in 6.0 mi WNW 10.4 mph 17.3 mph 0.00 in Snow Light Snow
5:30 PM 21.2 °F 12.6 °F 12.2 °F 68% 30.06 in 1.5 mi Variable 6.9 mph - 0.00 in Snow Light Snow
5:38 PM 21.2 °F 13.6 °F 12.2 °F 68% 30.06 in 1.2 mi West 5.8 mph - 0.00 in Snow Light Snow
5:40 PM 21.2 °F 13.6 °F 10.4 °F 63% 30.06 in 2.0 mi WNW 5.8 mph - 0.00 in Snow Light Snow
5:48 PM 21.2 °F 11.7 °F 10.4 °F 63% 30.07 in 3.0 mi NNW 8.1 mph - 0.00 in Snow Light Snow
5:51 PM 21.2 °F 10.1 °F 12.2 °F 68% 30.07 in 1.8 mi NW 10.4 mph 18.4 mph 0.00 in Snow Light Snow
5:53 PM 21.0 °F 11.4 °F 12.0 °F 68% 30.10 in 1.5 mi WNW 8.1 mph 18.4 mph 0.00 in Snow Light Snow
6:07 PM 21.2 °F 12.6 °F 12.2 °F 68% 30.07 in 0.8 mi WNW 6.9 mph - 0.00 in Snow Light Snow
6:17 PM 19.4 °F 14.3 °F 14.0 °F 80% 30.08 in 0.8 mi NNW 3.5 mph - 0.00 in Snow Light Snow
6:29 PM 19.4 °F 12.8 °F 14.0 °F 80% 30.08 in 0.5 mi NNW 4.6 mph - 0.01 in Snow Snow
6:43 PM 19.4 °F - 15.8 °F 86% 30.08 in 0.8 mi Calm Calm - 0.03 in Snow Light Snow
6:47 PM 19.4 °F - 15.8 °F 86% 30.08 in 1.5 mi Calm Calm - 0.03 in Snow Light Snow
6:50 PM 19.4 °F - 15.8 °F 86% 30.08 in 3.0 mi Calm Calm - 0.03 in Snow Light Snow
6:53 PM 19.9 °F - 15.1 °F 81% 30.12 in 6.0 mi Calm Calm - 0.03 in Snow Light Snow
7:02 PM 19.4 °F - 15.8 °F 86% 30.08 in 9.0 mi Calm Calm - 0.00 in   Overcast
7:24 PM 21.2 °F 14.9 °F 14.0 °F 74% 30.09 in 2.5 mi North 4.6 mph - 0.00 in Snow Light Snow
7:43 PM 19.4 °F 14.3 °F 14.0 °F 80% 30.09 in 4.0 mi North 3.5 mph - 0.00 in Snow Light Snow
7:53 PM 19.9 °F 13.4 °F 12.0 °F 71% 30.13 in 9.0 mi NNW 4.6 mph - 0.00 in Snow Light Snow
8:06 PM 19.4 °F 14.3 °F 12.2 °F 74% 30.09 in 4.0 mi NNW 3.5 mph - 0.00 in Snow Light Snow
8:18 PM 19.4 °F 12.8 °F 12.2 °F 74% 30.10 in 1.8 mi North 4.6 mph - 0.00 in Snow Light Snow
8:30 PM 19.4 °F 10.4 °F 14.0 °F 80% 30.10 in 1.0 mi NNW 6.9 mph - 0.00 in Snow Light Snow
8:37 PM 19.4 °F 11.5 °F 14.0 °F 80% 30.10 in 0.8 mi NNW 5.8 mph - 0.01 in Snow Light Snow
8:42 PM 19.4 °F 11.5 °F 14.0 °F 80% 30.10 in 4.0 mi NNW 5.8 mph - 0.01 in Snow Light Snow
8:53 PM 19.0 °F 10.0 °F 12.0 °F 74% 30.13 in 9.0 mi NNW 6.9 mph - 0.01 in   Mostly Cloudy
9:00 PM 17.6 °F 10.7 °F 12.2 °F 79% 30.10 in 10.0 mi Variable 4.6 mph - N/A   Scattered Clouds
9:10 PM 19.4 °F 11.5 °F 10.4 °F 68% 30.10 in 2.5 mi North 5.8 mph - 0.00 in Snow Light Snow
9:19 PM 17.6 °F 10.7 °F 10.4 °F 73% 30.10 in 7.0 mi NW 4.6 mph - 0.00 in Snow Light Snow
9:53 PM 16.0 °F - 9.0 °F 74% 30.14 in 10.0 mi Calm Calm - 0.00 in   Clear
10:53 PM 15.1 °F - 8.1 °F 74% 30.15 in 10.0 mi Calm Calm - N/A   Clear
11:53 PM 12.9 °F 6.9 °F 6.1 °F 74% 30.16 in 10.0 mi Variable 3.5 mph - N/A   Clear